Location: Rometta
(44.2000°N, 10.0500°E)
Time: 22:10:06
(UTC+00:00)

Cosmos 44 - Pass Details

Date: 20 January 2021
Orbit: 572 x 790 km, 65.1° (Epoch: 03 March)

Event Time Altitude Azimuth Distance (km) Brightness Sun altitude
Rises 17:33:27 0° 176° (S) 2,927 6.7 -14.2°
Reaches altitude 10° 17:36:02 10° 162° (SSE) 2,061 5.7 -14.6°
Maximum altitude 17:39:43 23° 110° (ESE) 1,432 4.4 -15.3°
Enters shadow 17:40:16 23° 100° (E) 1,458 4.4 -15.4°
